This is the latest recevied weather packets stored in our database for station/object W9KHP-1. If no packets are shown the sender has not sent any weather packets the latest 10 day(s).
| Time | Temp. | Humidity | Pressure | Rain* | Wind** | Luminosity | Snow |
|---|---|---|---|---|---|---|---|
| 1777632861 | 11.11° C | 79% | 1016.3 hPa | 0 mm | - | 1 W/m² | - |
| 1777632555 | 11.11° C | 78% | 1016.4 hPa | 0 mm | - | 1 W/m² | - |
| 1777632254 | 11.11° C | 78% | 1016.3 hPa | 0 mm | - | 0 W/m² | - |
| 1777631950 | 11.11° C | 77% | 1016.3 hPa | 0 mm | - | 0 W/m² | - |
| 1777631649 | 11.11° C | 78% | 1016.5 hPa | 0 mm | - | 0 W/m² | - |
| 1777631345 | 11.11° C | 75% | 1016.3 hPa | 0 mm | - | 0 W/m² | - |
| 1777631042 | 11.11° C | 74% | 1016.4 hPa | 0 mm | - | 0 W/m² | - |
| 1777630738 | 11.11° C | 73% | 1016 hPa | 0 mm | - | 0 W/m² | - |
| 1777630435 | 11.11° C | 73% | 1016.2 hPa | 0 mm | - | 0 W/m² | - |
| 1777630133 | 11.11° C | 74% | 1016.3 hPa | 0 mm | - | 0 W/m² | - |
| 1777629830 | 11.11° C | 73% | 1016.1 hPa | 0 mm | - | 0 W/m² | - |
| 1777629527 | 11.11° C | 74% | 1016.1 hPa | 0 mm | - | 0 W/m² | - |
| 1777629223 | 10.56° C | 74% | 1016.1 hPa | 0 mm | - | 0 W/m² | - |
| 1777628919 | 11.11° C | 75% | 1016.2 hPa | 0 mm | - | 0 W/m² | - |
| 1777628617 | 10.56° C | 75% | 1016.2 hPa | 0 mm | - | 0 W/m² | - |
| 1777628312 | 11.11° C | 75% | 1016.3 hPa | 0 mm | - | 0 W/m² | - |
| 1777628009 | 11.11° C | 74% | 1016.1 hPa | 0 mm | - | 0 W/m² | - |
| 1777627708 | 11.11° C | 74% | 1016.1 hPa | 0 mm | - | 0 W/m² | - |
| 1777627406 | 10.56° C | 75% | 1016.1 hPa | 0 mm | - | 0 W/m² | - |
| 1777627104 | 11.11° C | 74% | 1016.1 hPa | 0 mm | - | 0 W/m² | - |
| 1777626800 | 11.11° C | 74% | 1016.3 hPa | 0 mm | - | 0 W/m² | - |
| 1777626497 | 11.11° C | 72% | 1016.6 hPa | 0 mm | - | 0 W/m² | - |
| 1777626197 | 11.67° C | 74% | 1016.3 hPa | 0 mm | - | 0 W/m² | - |
| 1777625895 | 11.11° C | 70% | 1016.3 hPa | 0 mm | - | 0 W/m² | - |
| 1777625591 | 11.11° C | 71% | 1016.4 hPa | 0 mm | - | 0 W/m² | - |
* Rain latest hour (hover to see other rain measurements)
** Current wind speed in m/s (hover to see current wind gust speed)